Theta_e
334 319 312 310 300 298 294 299 307 307 308 324 324 325 325 326 322 312 342 351 355 356 359 361 362 362 362 361 360 360 360 360 360 360 361 361 361 362 361 361 361 359 357 355 352 353 354 354 354
326 317 310 303 295 291 293 301 303 308 313 329 328 329 327 325 340 340 343 355 354 357 358 359 362 361 361 361 360 359 360 360 360 360 360 360 360 361 361 361 361 359 357 354 352 353 353 353 353
316 315 303 299 292 291 295 301 305 308 314 314 324 330 330 330 342 342 351 355 356 355 357 359 362 361 361 360 360 359 359 359 360 360 360 359 360 360 359 359 359 356 354 352 352 353 353 353 352
312 306 302 296 293 297 303 303 305 307 311 322 328 325 331 339 341 349 356 356 354 354 356 361 361 361 360 361 360 359 359 359 360 360 360 359 359 360 359 359 358 356 352 351 351 352 353 353 352
307 302 295 291 293 299 307 306 306 305 308 322 327 324 326 343 351 353 354 354 352 353 356 359 361 361 361 360 360 359 359 359 359 360 360 359 360 359 359 359 357 355 354 352 351 352 354 354 353
299 301 291 290 295 303 307 307 306 307 323 325 325 325 326 345 347 350 351 350 354 353 355 357 361 361 360 360 360 359 358 358 359 359 359 360 359 359 359 358 357 355 354 353 351 352 352 352 351
296 296 292 294 297 299 307 305 309 305 312 315 325 321 325 339 346 349 348 351 352 354 354 355 356 359 360 360 359 359 358 358 358 358 358 358 358 358 358 357 356 355 354 353 352 350 349 348 347
300 297 293 296 297 298 307 303 304 305 308 318 322 315 317 335 345 347 345 349 350 351 352 353 354 355 356 356 359 359 358 358 357 358 357 357 357 357 357 355 355 355 353 352 350 349 348 346 344
302 292 291 295 298 299 307 302 307 308 307 311 314 317 319 333 343 339 343 345 348 349 348 351 353 354 354 354 356 358 359 359 358 357 357 354 351 352 353 354 354 355 354 352 351 349 347 346 345
295 294 298 302 303 300 305 304 304 304 306 305 310 314 315 337 338 338 340 341 344 345 347 349 351 353 353 354 353 353 354 354 354 353 352 350 348 348 351 352 355 355 355 353 351 350 348 346 332
293 297 304 304 306 305 306 306 306 304 302 304 303 307 310 310 322 338 339 342 344 346 347 349 350 352 351 352 353 354 354 354 353 351 351 348 348 346 347 346 348 346 351 344 345 342 340 335 332
291 297 302 307 311 308 303 308 310 313 307 308 307 308 307 308 308 317 337 342 343 345 346 347 348 349 349 349 352 351 351 352 352 352 351 347 345 343 344 343 342 342 341 340 337 336 335 333 331
291 297 301 302 305 305 307 307 311 309 313 308 307 308 306 306 307 307 318 320 331 345 346 345 346 346 347 345 348 348 350 350 349 351 351 349 346 344 345 344 343 342 342 340 336 335 333 332 330
295 298 299 301 301 303 304 302 302 309 313 309 307 305 304 305 307 305 305 309 313 332 342 346 345 345 344 341 345 346 347 349 349 350 350 350 347 344 343 343 343 342 341 341 339 335 332 329 327
298 294 297 298 299 299 302 298 299 306 307 306 307 304 304 305 305 306 307 314 318 322 327 338 342 342 342 341 344 344 344 346 346 347 348 349 348 345 344 343 342 343 341 338 335 333 330 328 327
292 291 286 295 298 300 300 293 301 305 304 304 303 303 302 303 305 305 307 313 315 320 332 337 343 340 339 340 342 342 343 341 343 344 346 349 349 349 345 345 342 342 340 338 336 336 332 329 329
288 285 287 291 298 298 298 294 300 304 302 301 301 301 302 302 305 306 309 311 313 318 323 330 337 338 337 339 344 347 343 340 340 342 339 343 348 350 348 345 345 341 338 337 337 335 332 332 327
285 287 289 290 295 296 293 294 298 300 300 300 300 300 301 301 304 306 307 309 310 316 317 321 323 324 326 326 327 334 343 347 347 345 342 342 343 344 343 346 344 340 337 335 335 334 332 332 331
292 290 290 294 297 295 293 293 297 300 297 297 299 300 301 301 304 305 308 313 314 315 319 320 319 318 319 316 315 317 320 329 338 344 346 345 343 342 341 341 340 337 337 337 335 334 331 330 327
293 290 290 294 297 294 292 293 296 296 297 299 300 300 301 302 304 309 314 315 316 316 316 317 319 319 318 320 321 320 322 324 326 328 329 335 342 342 341 340 339 339 339 338 336 334 334 333 331
292 290 291 291 295 295 292 290 292 297 298 299 299 300 301 302 302 307 312 313 312 313 312 313 313 314 316 318 317 315 315 314 315 316 321 325 331 336 339 340 339 338 338 338 339 337 334 333 333
289 295 295 294 290 285 292 283 289 293 295 298 299 299 300 301 302 306 309 308 309 310 312 312 311 314 316 315 314 313 311 311 314 316 319 319 322 324 330 331 333 336 338 338 339 339 336 335 331
292 297 295 294 289 286 287 284 288 292 293 295 298 299 301 301 301 305 308 309 308 309 308 309 316 314 313 315 315 315 313 313 313 314 316 317 319 321 324 325 326 327 332 338 338 338 336 335 334
297 293 290 288 286 280 285 285 285 289 292 294 298 301 301 301 300 303 305 306 305 304 308 313 312 311 312 315 315 313 312 311 310 312 314 315 319 320 323 324 323 323 324 326 332 338 337 336 336
292 285 280 279 279 279 287 285 287 294 299 300 299 299 299 299 300 301 302 302 303 304 305 308 309 310 312 315 313 312 312 311 311 313 313 315 317 318 318 319 320 322 324 326 328 331 334 333 335
290 286 280 277 277 280 289 283 290 299 300 300 299 298 299 300 301 302 303 303 303 303 303 305 305 305 308 309 310 312 311 312 313 314 316 316 317 316 318 320 321 321 324 326 328 329 331 333 332
291 287 290 284 284 281 284 289 294 299 299 300 300 300 298 299 299 299 300 300 300 300 301 301 305 305 306 306 306 308 310 311 314 316 315 317 316 318 319 320 318 319 319 320 321 323 325 328 328
296 297 286 284 279 277 282 285 286 294 295 298 299 299 299 299 298 298 299 299 299 299 300 301 302 303 304 305 306 310 311 314 314 311 313 314 316 316 318 316 316 316 317 317 316 318 322 324 326
292 288 289 288 284 278 278 283 295 298 297 297 296 297 297 297 298 299 300 301 301 302 302 302 303 303 303 303 304 306 308 309 311 311 314 315 313 314 315 314 315 315 314 313 314 316 320 322 323
293 290 290 283 283 281 279 282 298 296 295 296 295 296 297 297 297 298 300 301 301 300 301 301 301 302 302 303 302 302 303 304 305 308 312 315 312 313 313 313 313 314 314 312 312 312 316 316 317
Wind_Speed
8 7 1 4 3 5 4 6 3 6 10 5 1 4 4 4 2 4 2 7 17 14 13 13 13 14 18 17 17 17 17 17 17 17 16 16 15 15 14 13 13 13 13 13 12 12 12 11 11
5 5 4 3 4 0 6 5 6 6 5 6 5 4 5 3 3 6 8 9 16 13 11 12 14 13 17 17 17 17 16 15 15 16 16 16 15 14 14 13 13 14 14 13 13 12 11 11 10
5 1 3 4 3 6 5 5 8 3 4 13 2 2 2 1 4 6 9 15 14 11 8 12 16 14 16 17 17 16 16 15 15 15 14 14 14 13 12 12 11 12 12 12 12 11 10 9 8
2 4 3 4 7 6 4 8 9 13 10 0 5 4 3 1 7 7 14 16 15 10 9 13 17 14 15 17 16 15 15 15 15 14 13 13 13 12 11 11 10 10 11 11 10 9 8 6 5
3 1 1 1 5 6 3 7 9 10 4 4 3 2 3 4 13 17 15 14 16 11 8 12 17 14 14 15 16 16 15 14 15 15 14 13 11 11 10 10 10 10 11 11 11 10 8 7 6
0 1 2 5 5 4 4 8 5 5 4 4 6 5 2 5 13 12 15 13 12 14 10 10 17 17 14 15 15 16 16 15 15 15 15 15 13 12 11 11 10 10 10 10 11 10 9 8 8
7 3 6 4 4 4 4 5 4 5 2 2 6 5 2 6 4 12 13 12 13 12 12 9 10 13 15 14 15 15 16 16 16 15 15 15 15 14 13 11 11 11 11 11 11 11 10 10 10
5 4 3 5 5 7 4 2 5 7 4 2 8 6 6 7 9 8 7 9 7 8 10 11 11 12 11 10 16 15 15 15 14 15 15 15 14 14 14 14 14 13 12 11 11 11 11 11 11
4 4 5 6 6 6 6 6 9 4 6 3 6 6 6 11 11 7 6 4 5 6 5 6 9 10 12 12 12 16 17 16 15 13 13 10 5 7 9 9 11 13 14 15 14 13 12 11 11
5 7 12 6 0 5 9 5 6 6 9 7 5 7 8 14 16 14 11 10 8 10 7 6 7 9 8 8 8 8 8 7 7 7 7 5 5 5 7 9 12 12 13 13 13 13 12 11 5
4 13 13 3 6 4 10 17 2 5 2 4 4 6 3 6 4 12 13 14 18 11 8 12 11 8 9 7 5 5 5 5 5 6 6 4 2 1 1 2 2 3 8 3 6 5 4 5 4
5 4 6 13 19 11 5 9 14 10 7 6 5 6 4 9 9 9 9 10 8 9 12 8 7 7 7 4 5 5 6 6 6 7 7 6 4 4 3 2 3 3 2 3 3 3 4 5 5
5 2 11 10 9 12 15 23 18 16 9 6 5 3 6 6 7 7 9 8 8 11 12 13 12 10 8 5 4 4 4 5 5 8 10 6 6 7 7 7 6 6 4 4 3 3 4 4 4
5 8 6 7 12 18 24 15 3 26 21 16 8 5 5 6 8 4 6 8 8 11 11 11 13 12 10 6 6 4 3 2 3 7 8 10 7 7 6 6 7 7 6 6 7 7 6 5 5
12 4 7 14 13 12 10 12 17 23 12 18 18 6 8 9 7 8 4 10 8 6 4 10 10 11 11 9 6 5 4 5 4 4 4 5 6 6 7 6 7 7 6 6 4 6 5 5 5
8 4 5 9 12 14 14 19 18 18 18 19 11 9 5 8 10 8 7 9 8 6 8 8 9 9 7 7 6 5 4 4 4 4 4 6 6 7 6 7 7 6 5 6 6 6 6 8 8
3 5 5 8 12 10 18 8 12 11 11 11 10 9 9 8 9 8 8 9 9 7 9 8 8 9 9 7 5 5 6 5 5 4 4 5 7 9 8 7 8 5 5 6 7 7 6 8 7
5 3 4 6 4 5 4 7 10 9 9 12 11 9 9 9 12 10 7 8 8 8 6 9 7 8 8 6 5 3 4 5 5 5 6 8 8 8 7 8 7 5 4 5 5 9 6 9 8
3 3 5 5 6 1 6 5 15 12 8 9 9 9 9 10 10 3 7 8 9 7 8 9 10 9 8 4 4 2 4 2 3 3 4 4 5 7 7 7 6 5 6 9 6 6 9 8 3
5 3 7 6 5 5 4 6 7 4 7 12 12 8 9 6 7 5 9 7 12 12 10 8 7 6 4 4 3 3 3 1 1 1 1 0 4 6 5 6 6 7 7 7 9 8 10 7 5
5 5 6 7 3 1 2 5 5 5 3 4 3 4 5 9 10 8 10 13 11 13 9 9 9 8 6 6 5 4 3 3 2 1 2 2 2 4 4 6 5 7 7 8 10 10 13 12 9
6 7 11 9 5 4 2 5 4 5 6 3 4 6 9 10 8 8 10 9 10 8 8 8 7 8 6 7 5 5 4 3 3 3 3 3 3 4 5 6 5 5 6 7 9 8 10 9 12
10 9 13 7 3 5 2 4 8 2 3 5 8 7 8 11 11 12 15 15 7 8 8 7 7 8 6 6 6 6 4 4 2 3 3 2 3 3 5 5 6 6 4 7 9 9 9 9 11
6 4 7 5 4 1 4 6 6 3 2 5 4 7 7 8 2 6 6 7 4 4 4 5 6 4 5 7 8 9 9 7 4 4 3 2 2 3 4 5 5 6 6 7 7 9 11 10 10
8 7 3 3 2 6 3 3 8 3 2 6 3 7 4 6 7 8 10 6 4 5 6 6 8 8 8 8 8 9 10 9 8 6 4 4 3 3 5 4 4 3 6 8 8 9 9 10 10
2 5 7 7 4 4 4 4 4 2 5 7 6 5 7 6 8 9 9 9 9 9 8 8 8 8 8 9 10 8 8 5 5 6 5 5 5 4 5 6 5 6 6 5 6 7 8 8 8
1 3 3 7 3 4 3 5 2 4 8 9 8 8 6 6 7 6 7 5 6 5 6 5 6 8 8 8 5 6 6 7 7 8 5 5 5 4 6 6 6 6 6 6 6 5 8 9 9
3 3 2 4 5 4 4 3 5 2 5 3 6 6 6 7 8 8 8 9 8 7 8 7 4 3 4 5 5 6 8 6 5 5 8 7 6 6 6 6 6 7 7 6 6 6 7 8 8
4 2 5 5 4 5 4 6 4 5 5 7 8 7 7 8 9 8 7 7 7 6 7 7 8 8 8 8 8 9 9 8 6 6 8 6 6 7 7 7 7 7 8 7 6 8 10 10 11
4 2 4 6 4 3 4 7 4 5 6 9 7 6 7 8 6 5 6 5 5 5 6 6 6 6 5 4 5 5 6 6 6 6 7 7 8 8 8 7 7 7 7 7 7 10 10 11 12
Wind_Direction
299 300 141 40 50 67 271 257 257 288 329 319 21 124 155 65 236 211 146 138 128 143 150 150 154 146 130 127 124 123 124 124 123 123 124 127 130 132 131 131 133 135 137 140 143 144 145 144 139
312 311 42 83 103 241 265 240 251 233 322 319 42 0 54 22 88 117 103 135 132 139 147 149 148 148 135 132 131 130 129 126 125 127 130 132 135 137 138 140 142 145 147 149 150 153 153 152 147
294 270 90 125 161 196 228 228 262 310 215 262 264 48 63 104 106 154 126 134 128 136 146 154 146 152 143 138 137 138 136 133 132 134 137 140 140 143 144 144 147 151 152 154 156 158 160 159 152
316 6 20 117 231 254 232 315 299 305 324 153 150 86 69 118 160 135 136 138 132 137 150 153 143 154 149 145 143 143 143 143 142 144 146 149 149 150 150 150 152 156 159 161 160 163 166 168 167
67 64 187 213 259 264 326 258 290 285 246 147 131 127 71 31 114 131 143 147 143 146 153 152 146 154 155 152 151 150 153 153 154 153 156 158 157 156 156 157 161 166 168 168 169 173 177 181 194
243 135 101 234 250 264 282 281 273 320 109 143 111 104 25 137 133 157 151 154 154 151 153 159 155 156 162 161 160 160 162 164 165 164 163 164 166 170 171 171 173 175 177 178 179 184 190 198 207
155 163 193 193 258 273 220 295 349 320 263 167 130 92 114 210 163 156 154 155 159 159 156 162 161 163 165 167 168 169 171 172 172 172 173 174 175 179 178 181 184 186 187 190 190 193 197 205 216
164 137 162 209 208 256 198 13 291 359 328 353 160 157 186 219 150 138 142 149 148 166 172 168 165 166 167 172 176 176 176 179 180 181 181 181 185 188 192 185 188 194 198 203 202 204 206 212 220
213 109 198 201 179 265 230 54 331 330 343 321 308 141 171 135 136 125 123 110 131 169 190 180 178 179 177 177 182 180 182 183 185 188 190 183 187 196 201 204 211 207 203 202 206 211 214 221 230
190 185 221 195 307 304 322 44 358 355 4 3 15 18 51 140 154 160 171 175 178 184 186 187 192 188 180 183 179 176 183 184 184 189 187 182 190 195 202 212 220 223 224 223 223 220 217 222 225
223 211 219 194 287 235 318 304 14 323 120 317 358 308 117 119 166 172 187 183 188 189 184 196 194 184 178 183 175 182 179 177 180 179 184 185 177 208 259 314 285 238 242 254 253 253 240 235 236
178 202 155 218 254 269 266 306 292 282 282 219 212 230 309 132 173 193 191 187 180 184 200 192 185 183 187 178 179 184 187 188 190 196 186 168 173 183 200 201 245 279 268 270 278 292 295 292 299
193 164 189 233 245 284 299 274 263 274 252 218 214 237 215 242 182 182 186 189 181 198 201 199 178 179 181 181 167 167 195 189 200 204 209 194 200 208 197 200 204 197 208 203 227 251 272 268 263
200 202 205 244 223 234 243 254 42 277 286 272 220 202 197 248 245 165 166 200 183 207 211 190 184 179 173 169 158 153 163 190 196 214 214 201 201 206 202 217 221 226 214 208 209 220 231 244 238
228 165 225 231 230 238 231 258 232 243 266 267 273 205 226 222 246 222 167 181 184 212 203 191 176 170 173 171 150 160 158 166 185 215 225 231 230 216 218 220 224 224 214 219 208 207 212 233 234
157 152 222 234 216 232 174 241 241 233 224 233 245 273 249 251 227 234 206 148 163 161 161 147 163 162 153 154 162 173 167 176 191 200 189 206 221 234 228 236 244 236 214 205 221 232 241 246 238
354 176 181 272 201 204 184 210 226 222 204 224 234 245 244 228 228 222 210 167 160 148 137 137 138 146 142 145 161 168 183 209 208 197 205 217 224 227 226 233 247 226 224 224 224 226 217 243 242
214 197 206 212 236 200 151 246 252 242 207 223 224 232 242 234 218 201 185 147 147 147 131 126 128 137 140 138 131 137 147 189 185 207 196 214 230 221 225 240 242 222 215 221 215 235 224 237 238
236 224 232 237 239 259 248 268 266 265 211 214 223 233 239 230 233 126 166 141 134 143 146 153 145 162 149 154 143 128 157 144 155 192 214 212 232 237 226 231 239 245 230 247 237 231 237 245 216
222 248 276 283 265 157 241 239 260 276 228 208 211 226 233 231 238 134 143 151 162 166 176 168 160 157 144 116 115 107 134 120 126 43 355 246 213 234 246 244 237 230 242 235 236 235 254 252 214
231 195 253 216 331 210 219 309 326 311 272 179 255 239 254 229 230 166 176 177 166 172 173 164 161 164 160 136 108 83 73 67 48 359 320 302 356 295 248 240 230 230 230 243 238 242 241 254 252
256 206 238 253 131 218 112 264 284 299 313 343 267 276 266 253 242 184 180 190 181 169 168 163 162 162 163 150 129 135 151 171 216 189 196 276 299 292 298 296 277 238 235 242 243 237 234 239 253
228 215 205 208 178 122 334 86 270 314 293 286 296 276 246 245 236 198 188 179 172 153 165 173 163 156 157 154 147 146 171 201 206 234 251 285 303 264 265 276 294 294 247 248 245 243 228 229 237
273 105 52 48 95 195 220 136 287 241 274 292 279 267 277 322 214 153 119 111 128 121 139 150 160 191 188 173 177 180 191 201 206 220 197 251 259 267 271 277 276 283 291 281 267 248 246 242 239
50 59 1 331 359 213 281 99 228 280 325 247 284 328 353 82 75 94 92 95 117 156 177 181 191 207 211 204 203 205 204 201 209 214 198 186 218 239 273 289 289 272 265 285 286 275 257 250 241
17 134 151 202 199 230 315 228 212 8 33 42 70 59 23 69 115 120 148 172 186 195 199 203 204 220 212 211 221 218 222 214 210 212 187 196 198 201 225 250 265 274 267 265 274 281 276 265 258
218 58 175 105 12 70 258 292 2 34 38 40 44 50 30 37 9 358 349 336 327 309 274 286 270 241 232 234 241 241 237 225 222 213 202 200 197 208 219 229 253 266 276 272 268 266 275 275 271
124 150 69 15 144 203 287 265 219 68 62 43 22 8 16 28 29 32 32 11 357 347 329 335 324 320 328 337 322 317 313 289 244 207 215 208 213 211 217 235 235 256 252 261 268 263 263 266 269
21 44 70 107 132 162 166 257 215 138 20 355 21 12 44 56 49 40 37 33 31 27 29 28 33 29 28 24 17 9 354 344 329 299 291 240 211 220 217 222 230 236 249 239 246 256 266 265 266
90 119 118 134 203 162 158 262 68 49 33 84 47 43 47 59 42 35 33 22 19 10 6 2 360 7 359 355 357 348 338 337 340 333 317 302 279 279 237 227 234 241 242 249 246 262 264 262 266